TimeCST,TemperatureF,Dew PointF,Humidity,Sea Level PressureIn,VisibilityMPH,Wind Direction,Wind SpeedMPH,Gust SpeedMPH,PrecipitationIn,Events,Conditions,WindDirDegrees,DateUTC
12:54 AM,21.0,18.0,88,30.42,9.0,Calm,Calm,-,N/A,,Overcast,0,2013-02-09 06:54:00
1:54 AM,21.0,18.0,88,30.43,9.0,Calm,Calm,-,N/A,,Overcast,0,2013-02-09 07:54:00
2:54 AM,21.9,19.9,92,30.40,8.0,Calm,Calm,-,N/A,,Overcast,0,2013-02-09 08:54:00
3:54 AM,23.0,19.4,86,30.37,8.0,South,5.8,-,N/A,,Overcast,170,2013-02-09 09:54:00
4:23 AM,23.0,19.4,86,30.37,9.0,South,10.4,-,N/A,,Overcast,170,2013-02-09 10:23:00
4:54 AM,23.0,19.9,88,30.41,9.0,South,8.1,-,N/A,,Overcast,170,2013-02-09 10:54:00
5:54 AM,24.8,21.2,86,30.36,10.0,SSE,9.2,-,N/A,,Overcast,160,2013-02-09 11:54:00
6:54 AM,25.0,21.0,85,30.40,10.0,South,10.4,-,N/A,,Overcast,170,2013-02-09 12:54:00
7:54 AM,26.1,21.0,81,30.40,10.0,South,13.8,-,N/A,,Overcast,180,2013-02-09 13:54:00
8:54 AM,27.0,21.9,81,30.38,10.0,South,12.7,-,N/A,,Overcast,180,2013-02-09 14:54:00
9:54 AM,27.0,21.9,81,30.37,10.0,South,17.3,-,N/A,,Overcast,170,2013-02-09 15:54:00
10:54 AM,28.0,23.0,81,30.36,10.0,South,18.4,23.0,N/A,,Overcast,190,2013-02-09 16:54:00
11:54 AM,28.9,23.0,78,30.32,10.0,South,19.6,-,N/A,,Overcast,170,2013-02-09 17:54:00
12:08 PM,28.4,23.0,80,30.26,10.0,South,18.4,-,N/A,,Overcast,170,2013-02-09 18:08:00
12:54 PM,30.0,24.1,79,30.28,10.0,South,18.4,24.2,N/A,,Overcast,170,2013-02-09 18:54:00
1:54 PM,30.0,24.1,79,30.26,10.0,South,16.1,-,N/A,,Overcast,170,2013-02-09 19:54:00
2:54 PM,30.0,25.0,82,30.26,10.0,South,13.8,-,N/A,,Overcast,170,2013-02-09 20:54:00
3:54 PM,30.0,25.0,82,30.22,10.0,South,10.4,-,N/A,,Overcast,170,2013-02-09 21:54:00
4:54 PM,30.9,25.0,79,30.21,10.0,SSE,11.5,-,N/A,,Overcast,160,2013-02-09 22:54:00
5:54 PM,30.9,25.0,79,30.19,10.0,SSE,11.5,-,N/A,,Overcast,150,2013-02-09 23:54:00
6:54 PM,30.0,26.1,85,30.17,10.0,SSE,10.4,-,N/A,,Overcast,150,2013-02-10 00:54:00
7:21 PM,30.2,24.8,80,30.14,10.0,SE,8.1,-,N/A,,Mostly Cloudy,140,2013-02-10 01:21:00
7:54 PM,28.9,25.0,85,30.17,10.0,SE,8.1,-,N/A,,Mostly Cloudy,140,2013-02-10 01:54:00
8:54 PM,28.9,25.0,85,30.15,10.0,ESE,5.8,-,N/A,,Overcast,120,2013-02-10 02:54:00
9:54 PM,28.9,25.0,85,30.12,8.0,ESE,8.1,-,N/A,,Mostly Cloudy,120,2013-02-10 03:54:00
10:54 PM,28.0,24.1,85,30.10,8.0,ESE,10.4,-,N/A,,Scattered Clouds,120,2013-02-10 04:54:00
11:54 PM,27.0,24.1,89,30.09,7.0,SE,6.9,-,N/A,,Partly Cloudy,130,2013-02-10 05:54:00